Regional Weather Roundup
Issued by NWS

Home | Current Version | Previous Version | Text Only | Print | Product List | Glossary On
Versions: 1 2 3 4 5 6 7 8 9 10 11 12 13 14 15 16 17 18 19 20 21 22 23 24 25 26 27 28 29 30 31 32 33 34 35 36 37 38 39 40 41 42 43 44 45 46 47 48 49 50
000
ASUS42 KTBW 010110
RWRFL
FLORIDA REGIONAL WEATHER ROUNDUP
NATIONAL WEATHER SERVICE TAMPA BAY RUSKIN FL
900 PM EDT TUE SEP 30 2014

NOTE: "FAIR" INDICATES FEW OR NO CLOUDS BELOW 12,000 FEET WITH NO
SIGNIFICANT WEATHER AND/OR OBSTRUCTIONS TO VISIBILITY.


FLZ001>010-012>015-112-114-115-010200-
PANHANDLE FLORIDA

CITY           SKY/WX    TMP DP  RH WIND       PRES   REMARKS
PENSACOLA      PTCLDY    74  66  76 CALM      29.89R
PENSACOLA NAS  MOCLDY    74  68  81 NE7       29.88R
MILTON NAS     PTCLDY    71  65  81 NE3       29.89S
CRESTVIEW      FAIR      68  67  96 CALM      29.91R
DUKE FIELD     PTCLDY    69  69  99 CALM      29.90R
VALPARAISO     PTCLDY    74  67  77 E2        29.90R
MARY ESTHER    MOCLDY    75  65  70 E5        29.88R
TRI COUNTY     FAIR      68  67  96 CALM      29.91R
PANAMA CITY    MOCLDY    73  69  87 NW5       29.88S
TYNDALL AFB    PTCLDY    74  72  92 CALM      29.89R
APALACHICOLA   CLOUDY    76  70  82 N5        29.88R

STATION/POSITION SKY/WX   TEMP    WIND        PRES    WAVE   SWELL
                          AIR SEA DIR/SP/G            HT/PER HT/PER
                          (F)     (DEG/KT/KT) (MB)    (FT/S) (FT/S)
30.1N   87.6W              79 82   60/ 10/ 12 1011.8R   1/ 5
28.8N   86.0W              79 83   20/ 10/ 12 1011.3R   2/ 5   2/ 5
PANAMA CITY BEAC           74 81  350/  4/  6 1012.0R
CAPE SAN BLAS    NOT AVBL
TOWER C                    76      10/ 13/ 15 1011.5R
28.5N   84.5W              79 83   20/ 14/ 16 1010.8R   3/ 5

$$
FLZ011-016>038-118-127-128-134-139-239-010200-
NORTH FLORIDA

CITY           SKY/WX    TMP DP  RH WIND       PRES   REMARKS
MARIANNA       MOCLDY    73  70  90 CALM      29.89R
TALLAHASSEE    CLOUDY    76  70  82 CALM      29.89R
PERRY          MOCLDY    63  59  88 NE7       29.89R
CROSS CITY       N/A     76  71  85 NE6       29.87R
LAKE CITY      CLOUDY    72  70  94 N3        29.89R
GAINESVILLE    CLOUDY    73  71  93 NE5       29.88R
MAYPORT NAS    MOCLDY    75  69  81 NE8       29.89R
JACKSONVILLE   MOCLDY    72  70  93 CALM      29.89R
JAX NAS        MOCLDY    78  69  73 NE8       29.89R
JAX CRAIG      MOCLDY    74  69  85 NE5       29.89R
JAX CECIL      MOCLDY    73  70  88 NE5       29.89R
FERNANDINA BEA CLOUDY    79  70  73 NE6       29.88R
ST AUGUSTINE   CLOUDY    76  70  82 N9        29.89R

STATION/POSITION SKY/WX   TEMP    WIND        PRES    WAVE   SWELL
                          AIR SEA DIR/SP/G            HT/PER HT/PER
                          (F)     (DEG/KT/KT) (MB)    (FT/S) (FT/S)
SHELL POINT                75      20/  4/  8   N/A
KEATON BEACH               75      30/  5/  6 1011.8R
CEDAR KEY                  76      40/  5/  6 1011.7R
FERNANDINA                 74 79   40/  4/  7 1011.5R
30.7N   81.3W                 79                N/A     3/ 6
MAYPORT                    75 79   30/  6/  7   N/A
31.4N   80.9W              76 79   60/ 10/ 14 1011.9R   3/ 6   3/ 6
ST AUGUSTINE               76      10/ 15/ 18 1012.2R

$$
FLZ040-043>046-052-053-057-058-063-144-010200-
INTERIOR CENTRAL FLORIDA

CITY           SKY/WX    TMP DP  RH WIND       PRES   REMARKS
OCALA          PTCLDY    73  70  88 NE6       29.87R
THE VILLAGES     N/A     75  75 100 CALM      29.78R
LEESBURG       CLOUDY    77  73  87 NE3       29.88R
SANFORD        PTCLDY    76  73  91 N5        29.87R
ORLANDO EXEC   PTCLDY    78  74  87 N3        29.87R
ORLANDO INTL   MOCLDY    77  75  93 CALM      29.87R
WINTER HAVEN   MOCLDY    78  74  87 E3        29.88R
LAKELAND       PTCLDY    77  73  88 S5        29.86R
BARTOW         FAIR      73  73 100 S3        29.87S
OKEECHOBEE       N/A     77  73  88 MISG      29.87R

$$
FLZ041-047-054-059-064-141-147-010200-
EAST CENTRAL FLORIDA

CITY           SKY/WX    TMP DP  RH WIND       PRES   REMARKS
DAYTONA BEACH  MOCLDY    78  73  84 NE10      29.87R
DELAND         FAIR      75  73  94 NW3       29.88R
NEW SMYRNA BEA MOCLDY    77  73  88 N6        29.86R
JFK SPACE CTR  MOCLDY    77  73  88 NW5       29.86R
TITUSVILLE     PTCLDY    75  75 100 VRB5      29.87R
CAPE CANAVERAL MOCLDY    76  74  96 N2        29.86R
PATRICK AFB    FAIR      78  75  88 VRB5      29.86R
MELBOURNE      FAIR      78  75  90 SW5       29.86R
VERO BEACH     MOCLDY    76  73  91 W3        29.86R
FT PIERCE      LGT RAIN  78  74  87 W6        29.86R
STUART         PTCLDY    79  73  83 W3        29.87S

STATION/POSITION SKY/WX   TEMP    WIND        PRES    WAVE   SWELL
                          AIR SEA DIR/SP/G            HT/PER HT/PER
                          (F)     (DEG/KT/KT) (MB)    (FT/S) (FT/S)
28.5N   80.2W              77 83  100/  2/  4 1011.0R
28.9N   78.5W              80 84  300/  6/  8 1010.2R   3/ 8   2/ 8
TRIDENT PIER               76 84   60/  1/  2 1010.8R
28.4N   80.5W                 83                N/A     1/ 9
27.6N   80.2W                 83                N/A     1/ 8

$$
FLZ050-056-061-142-242-148-248-149-249-151-251-155-255-
160-260-010200-
WEST CENTRAL FLORIDA

CITY           SKY/WX    TMP DP  RH WIND       PRES   REMARKS
CRYSTAL RIVER  CLOUDY    77  72  83 E6        29.86R
INVERNESS      RAIN      75  52  43 NE5       29.87R
BROOKSVILLE    CLOUDY    77  74  90 E6        29.86R
ZEPHYRHILLS    MOCLDY    73  73 100 NE3       29.87R
CLEARWATER     MOCLDY    78  75  90 SE5       29.84R
TAMPA INTL     MOCLDY    81  74  79 CALM      29.85R
TAMPA EXEC     CLEAR     79  77  94 CALM      29.86R
PLANT CITY     CLEAR     79 N/A N/A S3        29.87S
MACDILL AFB    FAIR      79  79  99 SE3       29.85R
ST PETERSBURG  CLOUDY    80  76  87 SE9       29.83R
SARASOTA       CLEAR     80  75  84 SW5       29.84R
VENICE           N/A     77  75  94 MISG      29.86S

STATION/POSITION SKY/WX   TEMP    WIND        PRES    WAVE   SWELL
                          AIR SEA DIR/SP/G            HT/PER HT/PER
                          (F)     (DEG/KT/KT) (MB)    (FT/S) (FT/S)
CEDAR KEY                  76      40/  5/  6 1011.7R
28.5N   84.5W              79 83   20/ 14/ 16 1010.8R   3/ 5
27.3N   84.3W                 84                N/A     3/ 4
CLEARWATER BEACH           82 83  230/  7/  8 1009.9R
MIDDLE TAMPA BAY           80     150/  7/  8 1010.7S
VENICE                     78 85  360/  1/  2 1010.6R

$$
FLZ066-069-070-075>078-162-262-165-265-010200-
SOUTHWEST FLORIDA AND KEYS

CITY           SKY/WX    TMP DP  RH WIND       PRES   REMARKS
PUNTA GORDA    LGT RAIN  79  75  87 CALM      29.87R
FT MYERS       FAIR      79  74  84 CALM      29.85R
SOUTHWEST INTL PTCLDY    78  74  87 N3        29.86S
NAPLES         FAIR      84  76  76 W5        29.86R
MARCO ISLAND   FAIR      82  75  78 W6        29.87R
MARATHON       CLEAR     83  75  77 W5        29.88R
KEY WEST NAS   PTCLDY    84  74  71 W5        29.88R
KEY WEST INTL  CLEAR     84  75  74 W5        29.88R

STATION/POSITION SKY/WX   TEMP    WIND        PRES    WAVE   SWELL
                          AIR SEA DIR/SP/G            HT/PER HT/PER
                          (F)     (DEG/KT/KT) (MB)    (FT/S) (FT/S)
VENICE                     78 85  360/  1/  2 1010.6R
NAPLES                     83 88  280/  9/ 11 1011.9R
DRY TORTUGAS               84     330/  8/  9 1011.0R
NW FL BAY                  85     300/  9/ 11 1011.0S
SAND KEY                   84     290/  6/  8 1011.9R
SOMBRERO KEY               85     300/  7/  7 1012.7R
LONG KEY                   84 87  310/  7/  9 1012.7R
MOLASSES REEF              85 85  320/ 10/ 11 1012.0R

$$
FLZ067-068-071>074-168-172>174-010200-
SOUTHEAST FLORIDA

CITY           SKY/WX    TMP DP  RH WIND       PRES   REMARKS
W PALM BEACH   LGT RAIN  77  74  90 CALM      29.85S
FT LAUDER-EXEC FAIR      80  75  84 N3        29.86R
FT LAUDERDALE  MOCLDY    84  74  71 W7        29.86R
POMPANO BEACH  LGT RAIN  82  77  84 NW5       29.87R
PEMBROKE PINES FAIR      82  74  76 SW3       29.88R
OPA LOCKA      MOCLDY    81  76  84 SW3       29.87R
MIAMI          CLOUDY    84  74  71 W5        29.88R
WEST KENDALL   PTCLDY    81  76  84 W6        29.88R
HOMESTEAD      FAIR      81  75  83 SW3       29.88R

STATION/POSITION SKY/WX   TEMP    WIND        PRES    WAVE   SWELL
                          AIR SEA DIR/SP/G            HT/PER HT/PER
                          (F)     (DEG/KT/KT) (MB)    (FT/S) (FT/S)
PORT EVERGLADES            84     260/  5/  7 1011.2
VIRGINIA KEY               84 85  250/  8/  8 1011.9R
LAKE WORTH                 77 85  310/  2/  5 1010.9R
FOWEY ROCKS                84 85  260/ 10/ 12 1012.2R
SETTLEMENT POINT           82     250/  6/  7 1012.1R

$$



USA.gov is the U.S. government's official web portal to all federal, state and local government web resources and services.